Vorticity
4 2 4 4 7 14 13 11 7 7 11 11 9 7 4 4 5 2 6 7 6 9 8 9 4 3 6 2 2 9 10 6 6 3 1 2 3 8 9 8 8 8 8 6 6 7 7 6 6 6 5 5 5 6 6 6 7 7 7 7 6 6 6 5 6 6 6 5 5 6 6 7 6 5 6 7 5 4 6 7 6 7 8 7 7 6 7 8 7 5 4 5 6 6 7 8 7
3 3 2 4 9 10 5 4 7 8 10 10 7 5 2 3 3 3 8 6 6 8 5 5 3 4 6 4 7 8 4 4 9 5 3 2 0 5 9 10 7 7 7 7 6 6 6 6 6 5 5 6 6 6 6 7 7 7 7 7 7 6 6 6 6 6 6 5 5 5 6 6 6 5 5 7 6 4 5 6 7 7 7 8 8 8 7 8 9 6 5 7 6 6 6 8 9
4 4 3 4 8 8 9 7 7 9 7 7 5 4 4 4 5 6 7 6 7 6 4 5 4 4 3 6 7 6 4 5 7 8 6 4 3 3 6 9 6 6 7 7 7 6 6 5 6 5 6 6 6 6 7 7 7 8 7 7 7 6 6 5 5 6 6 6 6 5 5 5 5 6 5 6 5 4 5 5 7 7 7 7 8 9 7 8 10 8 8 9 7 6 7 9 10
4 3 3 5 8 12 14 11 8 10 7 5 7 7 5 5 6 8 8 7 7 5 5 6 4 2 2 6 7 5 4 3 5 7 6 5 8 6 5 7 4 5 8 9 8 7 6 5 5 5 6 6 6 6 6 7 7 7 6 6 6 6 6 5 5 6 6 6 6 5 5 5 5 6 6 6 6 6 6 6 6 7 7 6 7 7 8 8 9 8 8 7 7 8 9 10 11
5 5 6 -1 -1 10 10 7 9 12 12 9 8 8 4 5 6 7 9 7 7 6 5 5 3 2 3 6 4 3 3 5 8 7 6 7 8 8 6 5 4 5 7 9 8 7 6 6 6 6 6 5 6 6 6 6 6 6 6 6 6 5 5 5 5 5 5 6 6 5 5 6 6 6 6 6 6 6 6 7 6 7 8 8 8 8 8 8 9 10 8 7 8 8 8 10 10
7 7 10 1 0 11 9 6 8 10 14 12 7 6 4 4 6 7 9 8 7 6 4 3 2 2 3 3 2 3 5 6 8 9 10 8 7 8 7 4 3 5 7 9 8 7 6 6 6 6 6 6 6 6 6 6 7 6 6 6 6 5 5 5 4 4 5 6 6 6 6 6 6 6 6 5 5 6 7 8 8 8 8 8 9 10 10 8 10 12 10 9 9 8 8 8 8
8 9 9 9 11 13 6 6 11 10 10 9 6 5 5 5 7 7 8 8 6 6 3 1 3 3 4 4 3 4 8 7 6 9 9 8 7 7 7 4 3 4 7 10 8 7 6 6 6 6 6 5 6 6 6 7 7 7 6 7 6 5 5 5 4 4 5 6 6 6 6 6 6 6 6 7 8 9 9 10 9 9 8 8 8 9 10 9 11 13 12 10 10 10 10 9 8
6 6 6 8 9 6 3 7 12 10 7 6 5 5 5 6 6 6 7 8 7 5 2 2 3 4 5 6 6 6 7 6 8 11 9 9 8 7 6 4 3 3 7 10 7 6 6 6 6 6 5 5 5 6 6 7 7 7 7 7 7 6 5 5 4 4 5 6 5 6 6 6 6 7 10 11 11 10 8 8 7 7 8 8 7 7 7 8 11 13 14 11 10 11 11 11 9
5 5 6 5 4 4 10 15 11 8 7 5 5 5 5 5 5 4 5 6 5 3 2 4 3 4 7 7 8 8 8 8 10 11 10 12 9 6 7 6 5 4 7 8 6 6 6 6 6 6 5 5 5 6 6 7 7 6 7 8 7 6 5 5 5 5 5 5 5 6 6 7 9 10 11 10 8 7 6 6 6 6 6 8 7 7 7 7 9 11 13 11 10 10 11 11 9
5 6 6 2 2 4 11 15 6 4 5 3 4 5 5 4 4 5 5 4 4 3 2 2 1 4 7 7 8 7 7 8 10 9 9 13 9 7 7 7 8 6 7 7 6 6 6 6 6 6 5 5 6 6 7 6 6 6 7 7 7 6 5 5 5 6 5 5 5 6 7 10 10 8 7 6 6 5 6 6 5 5 5 6 7 7 6 7 8 9 11 11 11 10 10 10 9
3 6 6 3 3 4 6 7 2 3 3 4 5 5 5 3 3 6 5 5 5 4 2 2 3 6 6 7 6 4 5 6 8 8 9 11 8 8 7 7 8 6 8 6 6 6 5 6 6 5 5 6 6 6 7 6 6 6 7 7 7 6 6 6 6 6 5 6 6 8 10 10 8 5 5 5 5 6 6 6 6 6 6 6 7 7 7 7 8 9 10 10 10 11 11 11 10
2 4 4 3 4 3 4 4 4 5 5 7 8 5 4 2 5 7 5 5 5 4 4 4 5 6 5 6 5 3 4 4 6 7 8 9 7 8 7 7 7 7 9 7 6 6 5 5 5 5 5 6 7 7 7 6 5 6 7 7 7 6 6 6 6 6 6 6 7 10 10 7 5 4 5 6 7 7 6 7 7 6 7 7 7 7 7 8 8 8 9 10 10 9 11 11 11
4 3 2 5 4 2 3 4 5 6 5 9 9 5 4 4 6 6 5 5 6 5 4 5 6 9 8 8 6 3 4 3 4 5 6 7 6 7 7 8 8 8 9 7 6 6 5 4 5 5 5 6 7 7 7 6 5 6 7 6 6 6 6 6 7 7 6 7 8 9 7 4 4 5 6 6 6 5 5 5 6 7 7 7 7 7 7 8 8 8 9 9 10 9 10 11 11
6 6 4 6 4 3 5 4 6 7 5 6 7 5 4 6 7 6 6 5 7 7 5 7 5 8 10 11 8 2 5 5 3 3 5 7 8 8 7 9 8 8 8 6 6 6 6 5 6 6 5 7 8 8 7 6 6 5 6 6 6 6 6 7 8 7 6 7 8 7 4 3 5 5 5 5 5 5 4 4 5 6 7 7 7 7 7 7 7 8 7 6 8 9 8 9 11
7 10 8 8 5 4 8 7 8 9 7 6 6 7 5 6 7 5 6 7 8 7 7 8 3 6 6 8 11 7 7 5 2 2 3 7 8 8 8 9 8 8 8 6 6 7 7 6 6 7 7 8 9 8 6 6 6 6 6 5 6 6 7 8 8 7 6 8 7 4 3 5 5 5 5 4 4 4 4 5 5 5 5 7 7 6 7 6 7 8 8 8 7 6 7 9 10
7 9 7 7 4 4 9 8 8 7 6 7 6 8 5 4 7 6 9 9 6 6 9 6 3 8 7 7 10 11 11 5 2 1 2 7 8 7 8 9 9 8 8 6 6 7 7 6 6 7 7 9 10 9 7 7 7 6 6 6 6 7 8 8 7 6 7 8 5 3 4 5 5 5 4 3 4 4 4 4 5 5 5 7 7 7 6 6 7 7 8 9 7 6 7 7 8
4 6 5 6 3 3 9 5 5 6 3 5 6 9 6 3 6 7 8 5 3 7 7 3 3 7 7 7 3 6 14 7 3 3 2 6 7 7 7 7 8 8 7 5 5 7 7 6 6 7 8 10 11 9 8 8 7 7 7 6 7 7 8 8 7 8 8 6 3 3 5 5 5 4 3 4 5 4 4 4 6 7 7 7 8 7 6 6 6 6 7 8 8 7 7 7 7
3 4 5 6 5 3 7 4 3 6 2 3 7 9 7 3 5 5 3 0 3 5 2 3 4 2 4 7 0 2 13 10 6 7 4 6 8 7 8 8 7 6 6 5 5 6 7 7 7 7 9 12 11 10 9 8 8 8 8 7 7 7 8 10 10 9 7 3 3 4 5 6 5 3 4 4 5 5 4 4 5 6 7 7 7 6 5 5 5 6 6 7 8 8 7 7 8
3 6 5 2 7 8 7 4 4 4 -0 3 9 7 5 5 5 2 1 2 4 4 4 5 4 4 5 6 4 1 9 11 6 5 5 7 9 9 9 8 7 6 5 5 5 5 6 7 7 7 10 14 11 10 9 8 8 7 8 7 7 9 13 15 12 8 4 3 5 6 6 6 4 3 3 3 4 4 5 6 5 5 6 7 6 6 5 5 6 6 7 7 7 8 8 7 7
4 7 6 -2 4 10 8 5 5 2 -2 4 10 4 1 3 4 1 2 4 5 8 8 7 7 9 6 5 8 0 1 11 8 3 4 6 8 10 10 9 8 6 5 5 6 6 5 7 7 6 12 15 12 11 10 8 7 7 6 6 10 15 17 14 8 4 3 4 6 6 5 4 3 4 4 3 4 5 6 6 5 5 5 6 6 5 5 5 5 5 6 6 6 7 8 8 7
6 4 6 1 -1 6 8 4 4 2 0 6 8 3 4 5 4 4 6 8 9 11 8 6 9 10 7 8 9 0 -2 8 8 3 2 4 7 8 10 11 11 7 5 6 7 6 5 6 7 7 12 16 14 12 10 7 7 6 6 9 15 15 11 6 3 3 4 6 6 5 4 4 4 5 5 4 5 6 6 6 5 5 5 5 6 5 5 5 4 4 5 5 6 6 7 8 7
7 4 6 5 1 3 5 9 12 7 5 8 4 4 8 7 5 6 7 6 8 9 6 6 9 9 9 11 10 4 3 6 7 5 2 3 5 6 8 10 11 8 6 7 7 6 7 7 7 9 13 14 15 13 10 7 7 7 8 13 13 7 3 2 3 4 5 5 4 4 3 4 4 5 5 5 5 6 6 6 6 7 7 6 6 5 5 5 5 5 4 4 5 5 6 6 6
6 6 5 4 3 1 5 19 20 8 7 10 5 6 8 5 5 5 2 2 5 6 5 6 8 7 7 9 10 9 8 6 6 5 2 1 4 6 8 8 9 8 6 7 7 6 7 8 7 10 13 13 14 13 9 8 7 8 11 11 7 2 2 3 4 5 5 4 4 5 5 4 4 4 5 5 6 7 7 7 7 8 7 6 7 7 7 6 6 5 5 4 4 4 4 5 5
6 7 6 4 3 0 3 13 7 -0 7 9 4 5 5 5 5 3 3 4 6 6 5 5 5 5 8 10 10 9 11 11 7 7 6 4 5 7 9 10 10 8 6 7 6 6 7 8 8 10 12 12 14 13 10 9 8 10 11 7 3 2 3 4 5 5 3 4 5 6 6 5 5 5 6 6 7 8 9 9 9 10 8 7 7 8 9 9 8 7 6 6 5 4 4 4 5
5 7 6 5 4 1 2 4 -2 -1 8 6 4 4 3 6 5 3 6 7 7 8 6 4 3 6 10 11 9 8 13 13 8 7 5 3 4 5 8 10 11 8 6 7 6 5 7 8 9 11 12 12 13 12 10 9 9 10 8 4 3 3 4 4 4 3 3 4 5 6 6 6 6 7 7 8 9 10 11 11 10 10 9 9 8 8 9 11 11 10 8 8 7 6 4 4 5
4 6 7 5 6 3 1 4 3 2 8 8 5 3 3 7 6 5 5 3 4 7 5 4 5 7 8 10 9 7 8 9 7 4 4 3 3 4 6 8 11 7 6 9 6 5 7 8 11 13 11 12 12 11 9 8 8 8 5 3 3 4 4 4 4 4 5 5 6 6 6 7 8 9 10 10 9 9 8 7 8 8 9 9 8 8 9 11 12 11 10 10 9 7 6 6 6
3 5 7 5 5 6 2 4 7 6 9 10 5 2 3 4 5 9 7 3 3 5 5 4 7 6 6 10 10 7 7 9 10 7 5 5 3 4 5 8 10 7 6 9 6 5 7 7 11 13 11 11 10 9 8 7 7 5 4 3 4 4 4 4 5 5 5 6 7 7 8 9 10 10 9 7 6 6 7 8 8 8 8 8 8 7 9 11 12 13 13 11 10 9 8 8 8
4 4 6 6 5 6 5 4 6 8 8 6 4 1 -1 0 4 8 7 7 7 8 5 5 10 6 5 11 10 8 7 8 12 9 6 6 5 4 4 6 9 8 6 8 7 6 7 7 11 13 10 9 7 7 6 5 5 4 4 4 4 4 4 5 6 6 7 7 7 8 9 9 8 7 6 6 7 9 11 13 12 10 8 8 7 7 8 9 10 12 13 11 9 8 10 10 9
3 4 4 6 8 6 5 5 5 7 6 3 3 -1 -2 2 5 5 7 9 8 7 4 6 12 6 4 10 9 8 5 4 7 7 8 10 10 8 5 5 8 8 5 6 7 6 7 8 11 13 10 8 5 5 5 4 5 3 4 5 5 5 4 6 6 7 8 7 8 9 9 7 5 5 6 8 10 12 14 14 13 11 9 7 7 7 8 9 9 10 10 10 9 7 11 12 11
0 5 6 5 7 7 6 6 6 5 5 3 1 -1 2 3 4 4 7 10 7 3 2 5 9 7 6 9 7 7 3 3 6 8 10 10 12 12 8 6 8 8 5 5 6 6 7 8 11 12 9 7 3 3 4 5 6 5 5 5 6 6 5 7 7 8 8 7 9 9 6 5 5 7 9 11 13 15 14 14 13 11 10 9 8 8 8 9 11 11 9 7 7 6 9 11 10
-1 2 10 10 8 7 7 8 7 4 4 5 2 2 7 5 3 4 4 9 10 4 3 4 6 8 9 7 7 5 2 5 10 10 10 9 12 13 10 7 7 8 6 6 6 5 6 8 11 11 9 6 1 2 4 5 7 5 6 7 7 6 6 7 8 8 7 8 8 7 5 5 7 9 11 12 13 12 11 10 10 9 9 8 8 7 7 8 9 12 12 10 9 8 8 9 8
-1 -4 6 14 11 7 7 8 7 4 1 3 4 4 6 3 2 4 2 7 11 7 6 5 3 8 11 6 5 4 3 9 10 9 10 10 13 13 10 8 6 8 7 7 7 5 6 8 11 10 9 5 0 1 4 5 6 6 7 7 7 6 7 8 7 7 7 8 7 5 5 6 8 10 11 10 8 7 6 6 6 6 6 6 6 6 6 6 6 8 10 11 11 11 11 10 9
-1 -6 -0 9 10 7 7 6 6 5 1 1 4 4 3 2 2 2 0 7 11 8 8 7 4 9 10 4 3 4 4 7 7 6 8 9 12 12 10 8 6 7 7 7 6 6 5 7 10 10 8 7 1 1 4 6 7 7 7 7 7 8 7 7 6 7 6 7 7 5 6 8 9 10 9 6 4 3 3 3 4 5 6 6 6 6 6 7 6 7 7 8 8 9 10 10 10
3 -4 -4 2 7 7 5 5 4 5 3 1 2 2 2 3 4 4 3 8 11 8 8 8 5 7 8 3 2 4 3 3 5 6 6 7 11 12 12 10 7 7 7 7 7 7 6 6 10 10 8 8 3 2 5 7 7 7 8 7 7 8 7 7 6 6 6 6 6 6 7 8 8 9 6 3 2 2 2 3 4 5 7 8 8 8 8 9 9 8 7 7 7 6 7 8 8
8 1 -3 -3 1 4 3 3 4 5 5 4 5 4 2 4 5 6 8 9 9 8 7 6 2 3 9 6 2 4 3 2 5 7 7 9 11 12 13 12 10 7 6 7 7 7 7 5 10 10 7 7 6 5 6 7 7 7 8 7 7 7 6 6 6 6 5 5 5 6 7 7 7 7 4 2 2 2 2 4 4 5 8 9 9 9 10 11 12 11 10 10 9 7 7 7 7
9 7 3 -1 -1 0 1 1 2 4 4 6 9 8 4 4 5 3 6 9 9 8 7 5 2 2 8 7 4 3 1 1 6 8 8 10 12 14 14 13 11 9 6 7 7 8 7 5 9 12 8 6 7 7 6 7 7 6 7 6 6 6 5 6 6 6 5 5 5 5 6 7 6 5 3 2 2 2 3 4 4 6 7 8 8 8 8 9 10 11 11 12 12 11 9 8 7
10 8 7 5 3 2 1 1 1 2 3 3 6 10 6 4 5 1 2 8 10 10 9 7 4 3 6 6 6 5 1 3 8 9 9 9 11 15 18 16 12 10 8 6 6 8 8 5 7 12 10 6 7 6 5 7 6 5 6 6 6 6 5 6 7 6 5 5 5 5 6 6 6 4 2 2 1 1 2 3 4 5 6 7 7 6 7 7 7 8 9 11 12 12 11 10 8
14 9 8 8 7 7 4 2 2 2 4 3 2 7 8 6 6 2 1 6 9 10 10 9 7 4 4 7 8 5 1 3 8 8 9 9 10 14 19 20 14 11 9 6 6 7 9 6 6 11 11 7 7 6 5 7 6 4 4 5 6 6 6 6 7 7 6 5 4 5 5 6 6 5 3 1 1 1 2 4 4 4 5 6 6 6 6 6 6 7 7 8 9 11 12 11 10
15 12 10 9 8 10 8 5 4 3 5 7 4 5 7 6 6 6 4 3 5 9 9 10 8 2 2 6 7 3 -1 4 8 5 6 8 10 13 16 19 16 13 10 7 6 7 8 8 5 9 12 8 7 6 4 6 5 3 5 6 6 5 6 8 8 7 6 5 5 5 5 5 6 5 3 2 1 3 5 7 7 5 5 6 6 5 5 5 5 5 6 6 7 9 11 12 12
11 11 11 11 8 9 10 7 6 4 5 8 8 8 8 4 5 8 8 4 2 7 9 9 6 1 1 2 2 1 -2 4 8 4 6 8 11 16 16 16 16 14 12 8 6 5 7 9 6 7 11 10 6 5 3 4 5 5 7 8 7 7 8 9 8 6 6 6 5 5 5 5 6 5 3 3 3 5 7 11 10 7 5 5 6 5 4 4 4 4 4 5 5 6 8 11 13
9 8 10 12 11 10 10 8 7 5 5 8 8 11 11 6 6 8 9 7 3 6 9 9 6 -0 -2 0 2 1 -3 2 7 4 5 5 7 14 16 15 14 13 13 10 6 5 6 8 6 6 10 10 7 5 4 3 5 5 7 8 7 8 8 7 7 5 5 7 7 6 5 5 6 5 4 4 4 5 8 11 11 9 7 5 5 6 4 3 3 3 3 3 4 5 6 8 11
9 7 7 10 13 12 10 9 9 5 4 6 7 12 13 9 8 6 7 9 5 4 7 9 8 -0 -2 3 5 4 -0 1 5 3 3 6 7 12 18 20 15 12 13 11 8 6 6 8 7 6 8 10 8 5 4 4 6 7 7 7 6 6 7 4 3 4 5 7 8 7 6 5 6 6 6 5 5 6 8 10 10 10 9 7 6 5 5 4 3 2 3 3 3 3 4 6 7
7 6 6 9 12 13 11 8 8 7 6 6 6 10 13 12 11 5 4 9 6 4 6 9 9 1 1 5 6 7 4 2 5 5 6 10 10 8 14 21 17 12 12 12 10 6 5 8 8 6 7 10 8 5 5 5 5 8 7 7 7 7 5 3 2 4 5 7 8 8 6 5 6 6 6 6 5 6 7 8 8 9 9 9 8 7 5 5 4 3 3 3 3 3 3 4 5
6 6 7 8 10 13 13 8 7 7 7 7 6 7 10 13 13 6 2 7 9 6 5 9 9 3 3 5 5 8 5 1 2 2 5 8 9 7 9 15 15 11 10 11 10 7 5 7 9 8 7 9 8 5 5 4 4 7 7 7 7 5 4 3 3 5 6 6 7 8 8 6 5 6 6 7 6 6 6 6 6 6 7 8 8 8 7 6 6 5 4 3 3 3 3 3 4
5 5 6 7 9 12 14 10 7 6 6 7 6 6 9 13 14 11 6 6 9 9 6 9 8 4 4 2 4 9 3 -1 1 1 4 5 5 6 8 12 14 10 9 10 10 8 6 6 8 8 8 9 9 6 5 4 4 7 7 5 3 3 4 5 6 6 7 7 6 7 9 7 5 5 5 6 7 7 7 7 6 6 6 7 8 9 8 8 7 6 6 5 5 4 4 4 4
5 3 3 7 9 9 12 13 9 4 3 4 5 4 7 12 13 9 10 9 8 11 9 7 7 4 3 2 5 9 2 -1 3 2 3 4 3 3 4 8 13 13 12 12 11 9 7 6 8 9 8 9 9 7 5 3 5 6 6 4 1 2 7 8 8 7 6 8 8 7 8 8 7 5 4 5 6 7 7 7 6 6 7 7 7 8 9 9 9 7 7 7 6 6 5 4 5
8 2 -0 4 8 8 9 14 12 5 2 2 4 2 1 13 18 6 7 14 9 9 10 6 5 3 3 6 6 5 2 1 5 3 1 3 3 2 6 8 10 13 13 13 13 11 8 6 8 9 9 9 8 7 5 3 5 6 4 2 0 4 9 8 8 7 5 8 8 7 8 9 8 8 6 5 5 6 7 6 6 6 7 8 8 8 8 8 8 8 8 7 7 7 7 6 5
10 5 -0 1 5 7 8 12 13 8 4 3 5 3 -3 12 27 9 1 15 13 6 9 6 6 5 3 8 7 4 3 2 5 4 -0 2 3 3 10 12 10 13 14 14 14 13 10 8 8 10 10 9 8 8 6 3 4 5 4 2 0 5 9 7 6 5 5 7 7 7 9 9 10 10 8 7 6 7 7 6 8 10 11 11 11 10 10 9 9 9 9 9 8 6 7 7 6
7 7 1 1 3 5 6 9 11 10 7 6 6 4 -6 -1 22 18 2 11 16 10 9 7 6 8 5 6 5 4 5 5 4 3 0 1 3 3 7 10 10 12 14 14 15 13 11 9 7 10 12 10 8 9 8 5 4 4 4 2 1 6 8 6 4 3 4 7 8 8 8 8 9 9 8 8 8 8 8 9 11 12 12 12 12 11 12 12 12 12 12 12 13 11 10 9 8
4 7 4 2 2 4 6 7 7 8 8 8 8 4 -6 -11 8 21 9 7 15 14 12 9 6 7 7 6 5 3 4 4 2 2 2 1 2 3 4 6 7 10 12 14 16 14 11 9 7 8 12 13 10 9 8 6 5 4 3 3 4 7 8 5 4 3 3 6 8 8 6 7 7 8 9 10 10 10 11 12 12 12 11 10 10 11 11 12 12 12 13 13 13 14 14 13 13
4 8 9 5 2 4 8 7 6 7 7 10 10 3 -2 -4 4 18 15 6 11 15 14 13 8 6 8 6 4 2 2 3 1 0 3 3 1 2 3 5 7 8 11 13 15 15 11 9 7 6 10 13 12 11 9 7 6 4 2 3 6 9 7 4 4 4 4 6 7 7 6 6 5 9 12 11 11 12 11 12 10 8 7 5 4 5 5 5 6 6 6 7 6 7 7 8 9
5 4 9 8 4 2 5 7 6 7 9 10 11 5 -2 -4 -1 12 17 9 9 15 16 17 13 7 7 4 1 2 2 1 0 0 5 4 1 1 2 4 6 8 10 12 14 15 12 10 9 7 8 11 13 12 10 7 6 4 3 3 6 9 6 3 4 4 5 6 6 6 7 6 6 11 15 12 10 11 9 8 6 3 1 -0 -1 -2 -2 -1 -1 -1 -1 -1 -1 0 1 1 2
8 2 4 8 7 3 5 8 4 5 11 9 9 10 4 -2 -4 3 13 12 12 14 12 17 18 9 5 4 2 3 3 1 -0 1 6 6 1 0 3 4 5 7 10 11 13 14 12 11 11 8 8 10 12 11 10 8 6 4 3 4 7 8 5 4 5 4 4 6 5 6 7 7 7 11 13 11 8 7 5 3 1 0 -1 -1 -1 -1 -0 0 0 0 0 -1 -1 -0 -0 0 1
12 8 5 7 7 4 6 8 5 5 10 7 4 10 11 8 5 4 8 12 14 15 12 15 19 10 4 5 4 4 6 5 3 4 7 6 2 -1 2 5 6 7 9 9 10 13 12 11 11 10 8 10 12 12 10 8 7 5 3 4 6 6 5 5 5 5 5 6 6 5 6 7 7 9 10 9 7 5 3 1 -0 -0 -1 -1 0 1 2 3 4 4 4 4 4 4 3 3 3
12 12 8 6 5 5 5 7 6 4 6 5 3 8 10 9 7 5 8 11 11 15 17 15 14 10 7 8 8 8 8 6 5 7 7 6 5 3 3 6 6 5 8 8 8 11 12 11 12 11 8 8 11 11 10 8 7 6 4 4 5 4 4 4 5 6 6 6 5 4 4 7 8 9 8 8 8 5 3 2 0 -0 0 0 1 2 4 5 6 7 6 6 5 6 6 5 5
11 12 10 8 6 7 7 8 8 5 6 4 2 7 9 6 3 3 9 14 11 12 17 14 10 10 10 11 12 12 9 6 7 9 10 10 10 9 8 9 9 7 7 8 9 11 12 10 11 11 9 8 10 11 9 8 7 6 4 4 4 4 3 3 4 6 6 6 6 5 4 6 9 9 7 8 8 5 2 2 1 1 1 1 2 4 5 6 7 8 7 6 6 6 7 6 6
11 10 9 7 5 5 6 7 8 6 7 5 2 6 8 6 6 5 8 14 13 11 14 14 9 9 10 10 12 11 8 7 9 8 8 12 13 10 9 11 9 4 4 5 6 9 12 12 11 11 9 7 9 12 12 9 7 7 6 4 4 3 2 3 4 5 7 7 6 5 4 6 10 9 7 7 7 3 1 1 1 1 0 1 3 5 6 7 7 6 6 6 6 6 7 8 7
12 11 9 7 4 3 3 5 6 6 7 5 4 7 6 6 9 6 5 13 16 11 13 16 10 6 8 8 7 8 7 6 9 8 5 10 13 9 7 11 9 4 5 6 6 8 9 11 11 12 12 7 6 10 14 13 9 7 7 6 4 4 2 2 4 5 6 7 6 5 4 6 9 9 6 6 5 2 1 0 -0 0 -0 1 4 5 7 7 5 5 5 5 6 6 7 8 6
Height
5896 5896 5896 5896 5896 5896 5897 5897 5898 5898 5899 5899 5900 5900 5900 5900 5900 5901 5902 5902 5902 5903 5903 5903 5904 5904 5904 5904 5904 5904 5904 5904 5904 5904 5904 5904 5906 5906 5906 5906 5907 5908 5908 5907 5908 5908 5908 5908 5909 5910 5910 5911 5912 5912 5912 5912 5912 5912 5912 5912 5913 5913 5914 5914 5914 5914 5914 5914 5915 5916 5916 5916 5916 5914 5914 5915 5916 5918 5918 5918 5918 5918 5918 5917 5917 5917 5916 5917 5916 5918 5918 5919 5919 5920 5920 5920 5920
5896 5896 5897 5897 5897 5897 5898 5898 5898 5898 5899 5900 5900 5900 5900 5900 5900 5902 5902 5902 5903 5903 5903 5903 5904 5904 5904 5905 5905 5905 5906 5906 5906 5905 5905 5906 5906 5906 5907 5908 5908 5908 5908 5908 5908 5908 5908 5909 5910 5911 5912 5912 5912 5912 5912 5912 5912 5913 5914 5914 5914 5914 5914 5914 5914 5915 5915 5915 5916 5916 5916 5916 5916 5916 5916 5916 5917 5919 5918 5918 5919 5919 5918 5918 5918 5918 5918 5918 5918 5919 5919 5919 5919 5920 5920 5920 5920
5896 5896 5897 5898 5898 5898 5898 5898 5898 5898 5900 5900 5900 5900 5900 5900 5900 5901 5902 5902 5902 5903 5902 5903 5904 5904 5905 5906 5906 5906 5906 5906 5906 5906 5906 5906 5906 5907 5908 5908 5908 5908 5909 5909 5909 5909 5910 5910 5912 5912 5912 5912 5912 5912 5913 5914 5914 5914 5914 5914 5915 5915 5916 5916 5916 5916 5916 5916 5916 5916 5916 5916 5916 5916 5917 5918 5918 5919 5919 5918 5920 5920 5919 5919 5919 5920 5919 5918 5919 5920 5920 5918 5920 5920 5920 5920 5920
5896 5896 5898 5898 5898 5898 5898 5898 5898 5898 5900 5900 5900 5900 5900 5900 5901 5901 5902 5902 5902 5903 5903 5904 5904 5904 5906 5906 5906 5906 5906 5907 5908 5907 5907 5907 5907 5907 5908 5908 5908 5909 5910 5910 5910 5910 5910 5912 5912 5912 5912 5912 5912 5913 5914 5914 5914 5914 5915 5915 5916 5916 5916 5916 5916 5916 5917 5917 5918 5918 5917 5917 5918 5918 5918 5918 5918 5920 5920 5920 5920 5920 5920 5920 5920 5920 5920 5919 5920 5920 5920 5918 5919 5920 5922 5921 5921
5896 5896 5898 5898 5898 5898 5899 5898 5898 5898 5899 5900 5900 5900 5900 5901 5901 5901 5902 5902 5903 5904 5904 5904 5904 5905 5906 5906 5906 5906 5907 5907 5908 5908 5908 5908 5908 5908 5908 5908 5909 5910 5911 5911 5910 5911 5912 5912 5912 5913 5913 5913 5913 5914 5914 5915 5915 5916 5916 5916 5916 5916 5916 5917 5918 5918 5918 5918 5918 5918 5918 5918 5919 5919 5919 5918 5919 5920 5920 5921 5921 5920 5920 5920 5920 5920 5920 5920 5920 5920 5920 5918 5918 5920 5922 5922 5922
5895 5896 5897 5897 5897 5898 5899 5899 5898 5898 5899 5900 5900 5900 5900 5901 5901 5902 5902 5902 5903 5904 5904 5905 5905 5906 5906 5906 5906 5906 5907 5908 5908 5908 5908 5908 5908 5909 5909 5908 5910 5910 5912 5912 5912 5912 5912 5913 5914 5914 5914 5914 5914 5914 5915 5916 5916 5916 5916 5916 5917 5917 5918 5918 5918 5918 5918 5919 5920 5920 5920 5920 5920 5920 5920 5920 5920 5920 5922 5922 5922 5921 5920 5920 5920 5920 5920 5920 5920 5920 5920 5920 5918 5918 5920 5921 5921
5896 5896 5897 5897 5898 5898 5899 5899 5899 5899 5900 5900 5900 5901 5901 5902 5902 5902 5902 5902 5903 5904 5904 5905 5906 5906 5906 5906 5906 5906 5907 5908 5908 5908 5909 5909 5909 5910 5910 5910 5910 5911 5912 5912 5912 5912 5913 5914 5914 5914 5914 5914 5914 5915 5916 5916 5916 5916 5917 5917 5918 5918 5918 5919 5919 5919 5920 5920 5920 5922 5922 5922 5922 5922 5922 5922 5922 5922 5922 5922 5923 5922 5922 5922 5922 5920 5920 5920 5920 5920 5921 5921 5920 5920 5920 5920 5920
5896 5896 5897 5897 5898 5898 5899 5899 5900 5900 5900 5900 5901 5901 5902 5902 5902 5902 5902 5903 5903 5904 5904 5906 5906 5906 5906 5906 5907 5908 5908 5908 5908 5908 5910 5910 5910 5910 5910 5910 5910 5911 5912 5912 5912 5912 5913 5914 5914 5914 5914 5914 5915 5916 5916 5916 5917 5918 5918 5918 5918 5919 5920 5920 5920 5920 5920 5922 5922 5923 5923 5923 5922 5922 5923 5923 5923 5922 5922 5922 5923 5924 5924 5923 5922 5922 5922 5922 5922 5922 5922 5922 5922 5922 5922 5922 5922
5896 5896 5897 5897 5898 5898 5899 5899 5900 5900 5900 5900 5901 5902 5902 5902 5902 5902 5903 5904 5904 5904 5904 5906 5906 5906 5907 5907 5908 5908 5908 5908 5908 5908 5910 5910 5910 5910 5910 5910 5910 5911 5912 5913 5913 5913 5914 5914 5914 5914 5914 5915 5916 5916 5916 5917 5918 5918 5918 5918 5919 5920 5920 5921 5921 5922 5922 5922 5923 5924 5924 5924 5924 5924 5924 5924 5924 5924 5924 5924 5924 5924 5924 5924 5924 5923 5922 5923 5924 5923 5923 5922 5922 5924 5924 5924 5924
5895 5896 5896 5896 5897 5898 5899 5899 5900 5900 5900 5901 5901 5902 5902 5902 5902 5903 5904 5904 5904 5904 5905 5905 5906 5906 5908 5908 5908 5908 5908 5908 5908 5908 5910 5911 5911 5910 5910 5911 5911 5912 5912 5914 5914 5914 5914 5914 5914 5914 5914 5915 5916 5916 5918 5918 5918 5919 5920 5920 5920 5921 5922 5922 5922 5922 5923 5924 5924 5925 5925 5925 5925 5925 5925 5925 5926 5926 5926 5926 5926 5925 5925 5924 5924 5924 5924 5924 5924 5924 5924 5923 5924 5924 5926 5926 5924
5894 5896 5896 5896 5896 5898 5898 5899 5899 5900 5900 5900 5901 5902 5902 5902 5903 5904 5904 5904 5904 5905 5906 5906 5906 5906 5908 5908 5908 5909 5908 5908 5908 5909 5910 5911 5912 5911 5911 5912 5912 5913 5914 5914 5914 5914 5915 5915 5915 5915 5915 5916 5916 5917 5918 5918 5919 5920 5920 5921 5922 5922 5923 5924 5924 5924 5924 5925 5926 5926 5926 5926 5926 5926 5926 5926 5927 5927 5927 5927 5927 5926 5926 5926 5926 5925 5925 5925 5926 5926 5925 5924 5924 5925 5926 5926 5926
5894 5895 5895 5896 5896 5898 5898 5898 5899 5899 5900 5900 5901 5902 5902 5902 5903 5904 5904 5904 5905 5906 5906 5906 5906 5908 5908 5908 5909 5909 5909 5908 5909 5910 5910 5911 5912 5912 5912 5912 5912 5914 5914 5914 5914 5915 5915 5916 5916 5916 5916 5916 5918 5918 5919 5920 5920 5921 5922 5922 5923 5924 5924 5924 5925 5926 5926 5926 5927 5927 5927 5927 5927 5927 5928 5928 5928 5928 5928 5928 5928 5928 5927 5927 5926 5926 5926 5926 5926 5926 5926 5926 5926 5926 5926 5926 5926
5894 5894 5894 5895 5896 5897 5898 5898 5898 5898 5900 5900 5900 5901 5902 5902 5903 5904 5904 5905 5906 5906 5906 5907 5908 5908 5908 5909 5910 5910 5909 5909 5909 5910 5910 5912 5912 5912 5912 5912 5913 5914 5914 5915 5915 5915 5916 5916 5916 5916 5916 5917 5918 5919 5920 5920 5921 5922 5923 5924 5924 5924 5926 5926 5926 5927 5927 5928 5928 5928 5928 5928 5928 5928 5929 5929 5930 5930 5929 5929 5929 5928 5928 5928 5928 5928 5928 5928 5927 5927 5928 5928 5928 5928 5927 5927 5928
5894 5894 5894 5895 5895 5896 5897 5898 5898 5898 5899 5900 5900 5901 5902 5902 5903 5904 5905 5905 5906 5906 5907 5907 5908 5908 5908 5910 5910 5910 5910 5910 5910 5910 5910 5912 5912 5912 5912 5913 5914 5914 5914 5915 5916 5916 5916 5916 5916 5917 5917 5918 5919 5920 5920 5922 5922 5923 5924 5924 5925 5926 5926 5927 5928 5928 5928 5928 5929 5930 5930 5930 5930 5930 5930 5930 5930 5930 5930 5930 5930 5930 5930 5930 5929 5930 5930 5929 5929 5928 5928 5928 5928 5928 5928 5928 5928
5892 5894 5894 5894 5895 5896 5896 5897 5897 5898 5898 5899 5900 5901 5902 5902 5903 5904 5904 5905 5906 5906 5907 5907 5908 5908 5908 5910 5910 5910 5910 5910 5910 5910 5910 5912 5912 5912 5912 5914 5914 5914 5914 5915 5916 5916 5916 5916 5917 5918 5918 5918 5920 5920 5922 5922 5923 5924 5924 5926 5926 5927 5928 5928 5929 5929 5930 5930 5930 5930 5930 5930 5931 5931 5931 5931 5931 5931 5931 5931 5931 5930 5930 5930 5930 5930 5930 5930 5930 5930 5930 5928 5928 5928 5928 5928 5930
5892 5892 5893 5894 5894 5895 5896 5896 5897 5898 5898 5899 5900 5900 5901 5902 5903 5904 5904 5905 5906 5906 5906 5906 5907 5908 5908 5909 5910 5910 5910 5910 5910 5910 5910 5912 5912 5912 5913 5914 5914 5914 5915 5916 5916 5916 5917 5918 5918 5918 5919 5920 5920 5922 5922 5923 5924 5925 5926 5926 5927 5928 5929 5930 5930 5930 5930 5931 5931 5932 5932 5932 5932 5932 5932 5932 5932 5932 5932 5932 5932 5932 5932 5932 5931 5931 5931 5932 5931 5931 5931 5930 5930 5930 5930 5930 5930
5892 5892 5892 5893 5894 5894 5896 5896 5897 5898 5898 5900 5900 5900 5901 5902 5902 5903 5904 5905 5906 5906 5906 5906 5906 5907 5908 5908 5909 5910 5911 5910 5910 5910 5910 5912 5912 5912 5914 5914 5914 5914 5916 5916 5916 5917 5918 5918 5918 5920 5920 5920 5921 5922 5923 5924 5924 5926 5926 5927 5928 5929 5930 5930 5931 5932 5932 5932 5932 5932 5932 5932 5933 5933 5933 5933 5933 5933 5933 5933 5933 5933 5932 5932 5932 5932 5932 5932 5932 5932 5932 5932 5932 5932 5932 5933 5933
5891 5892 5892 5892 5893 5894 5895 5896 5897 5898 5898 5899 5900 5900 5901 5902 5902 5903 5904 5904 5904 5905 5906 5906 5906 5906 5908 5908 5908 5910 5911 5910 5910 5910 5910 5912 5912 5913 5914 5914 5914 5915 5916 5916 5917 5918 5918 5918 5920 5920 5920 5920 5922 5922 5924 5924 5926 5926 5926 5928 5928 5930 5930 5931 5932 5932 5933 5933 5933 5933 5934 5934 5934 5934 5934 5934 5934 5934 5934 5934 5934 5934 5934 5934 5934 5933 5933 5933 5933 5933 5932 5932 5932 5932 5933 5934 5934
5890 5890 5891 5892 5892 5894 5894 5896 5896 5896 5898 5898 5900 5900 5901 5902 5902 5902 5904 5904 5904 5906 5906 5906 5906 5906 5907 5908 5908 5910 5910 5910 5910 5910 5910 5912 5912 5914 5914 5914 5914 5915 5916 5916 5917 5918 5918 5919 5920 5920 5921 5921 5922 5923 5924 5925 5926 5926 5927 5928 5930 5930 5931 5932 5933 5934 5934 5934 5934 5934 5934 5935 5936 5936 5935 5935 5934 5934 5934 5935 5935 5935 5935 5935 5934 5934 5934 5934 5934 5934 5934 5934 5933 5932 5933 5933 5934
5889 5890 5890 5892 5892 5893 5894 5895 5896 5896 5897 5898 5899 5900 5901 5901 5902 5902 5903 5904 5905 5906 5906 5906 5906 5907 5908 5908 5909 5910 5910 5910 5910 5910 5911 5912 5912 5914 5914 5914 5914 5915 5916 5916 5918 5918 5918 5920 5920 5921 5921 5922 5922 5923 5924 5926 5926 5927 5928 5929 5930 5930 5932 5932 5934 5934 5934 5934 5934 5935 5936 5936 5936 5936 5936 5936 5936 5936 5936 5936 5936 5936 5936 5936 5936 5936 5936 5936 5936 5936 5935 5934 5934 5934 5934 5934 5934
5888 5888 5890 5891 5892 5892 5894 5894 5895 5896 5896 5897 5898 5900 5900 5900 5900 5902 5903 5904 5905 5906 5906 5906 5907 5908 5908 5908 5909 5909 5909 5910 5910 5910 5911 5912 5912 5914 5914 5914 5914 5915 5916 5916 5918 5918 5918 5920 5920 5921 5922 5922 5922 5924 5925 5926 5927 5928 5928 5930 5930 5932 5932 5934 5934 5934 5935 5935 5936 5936 5936 5936 5936 5937 5937 5937 5937 5936 5936 5936 5937 5937 5937 5937 5937 5936 5936 5936 5936 5936 5936 5936 5936 5936 5936 5935 5935
5886 5887 5888 5890 5891 5892 5893 5894 5894 5895 5896 5897 5898 5899 5899 5900 5900 5902 5902 5903 5904 5905 5906 5906 5907 5908 5908 5908 5909 5909 5909 5910 5910 5910 5911 5912 5912 5913 5914 5914 5914 5915 5916 5916 5917 5918 5919 5920 5920 5921 5922 5922 5923 5924 5926 5926 5928 5929 5930 5931 5932 5932 5934 5934 5935 5936 5936 5936 5936 5936 5937 5937 5938 5938 5938 5938 5938 5938 5938 5938 5938 5938 5938 5938 5938 5938 5938 5938 5938 5938 5938 5938 5938 5937 5937 5937 5937
5884 5886 5888 5888 5890 5891 5892 5893 5894 5895 5896 5898 5898 5898 5898 5900 5900 5901 5902 5902 5903 5904 5905 5906 5907 5908 5908 5908 5908 5909 5909 5909 5910 5910 5910 5911 5912 5913 5914 5914 5914 5915 5916 5916 5917 5918 5919 5920 5920 5921 5922 5922 5923 5924 5926 5927 5928 5930 5931 5932 5932 5933 5934 5935 5936 5936 5936 5937 5937 5938 5938 5938 5938 5938 5938 5939 5939 5939 5939 5938 5938 5938 5938 5938 5938 5938 5938 5938 5938 5939 5939 5939 5939 5939 5938 5938 5938
5884 5885 5886 5886 5888 5890 5891 5892 5893 5894 5896 5897 5898 5898 5899 5900 5900 5901 5902 5902 5902 5904 5904 5905 5906 5907 5907 5908 5908 5909 5910 5909 5910 5910 5911 5912 5912 5912 5914 5914 5914 5915 5916 5916 5917 5918 5919 5920 5920 5921 5922 5922 5924 5925 5926 5928 5928 5930 5932 5932 5934 5934 5935 5936 5936 5936 5937 5938 5938 5938 5938 5938 5938 5939 5939 5940 5940 5940 5940 5940 5939 5939 5938 5938 5938 5938 5939 5940 5940 5940 5940 5940 5940 5940 5940 5940 5940
5882 5883 5884 5884 5886 5888 5890 5891 5892 5894 5895 5896 5896 5898 5898 5900 5900 5902 5902 5902 5902 5903 5904 5905 5906 5906 5908 5908 5908 5909 5910 5910 5910 5910 5910 5911 5912 5912 5913 5914 5914 5915 5916 5916 5917 5918 5919 5920 5920 5922 5922 5923 5924 5926 5927 5928 5929 5931 5932 5934 5934 5934 5936 5936 5937 5938 5938 5938 5938 5939 5939 5939 5940 5940 5940 5940 5940 5940 5940 5940 5940 5940 5939 5939 5939 5939 5940 5940 5940 5940 5941 5941 5942 5942 5941 5942 5942
5880 5880 5882 5883 5884 5887 5888 5890 5892 5894 5894 5894 5896 5896 5898 5900 5900 5902 5902 5901 5902 5902 5904 5904 5906 5906 5908 5908 5908 5908 5909 5909 5910 5910 5910 5910 5911 5912 5912 5914 5914 5915 5916 5916 5917 5918 5920 5920 5921 5922 5922 5924 5924 5926 5928 5929 5930 5932 5933 5934 5935 5936 5936 5937 5938 5938 5938 5938 5939 5940 5940 5940 5940 5940 5940 5941 5941 5942 5941 5941 5941 5940 5940 5940 5940 5940 5940 5941 5942 5942 5942 5942 5942 5942 5942 5942 5942
5876 5876 5880 5882 5884 5886 5887 5889 5892 5893 5894 5894 5895 5896 5898 5899 5900 5902 5902 5900 5900 5902 5903 5904 5905 5906 5907 5908 5908 5908 5908 5909 5910 5910 5910 5910 5910 5912 5912 5914 5914 5915 5916 5916 5918 5918 5920 5920 5922 5922 5923 5924 5926 5927 5928 5930 5931 5932 5934 5935 5936 5936 5936 5938 5938 5940 5940 5940 5940 5940 5940 5941 5941 5941 5941 5942 5942 5942 5942 5942 5942 5942 5941 5940 5940 5940 5941 5942 5942 5942 5942 5943 5943 5943 5944 5944 5944
5872 5874 5878 5880 5882 5884 5886 5888 5890 5892 5893 5894 5894 5896 5897 5898 5900 5901 5901 5900 5901 5902 5902 5904 5905 5906 5906 5908 5908 5908 5908 5909 5909 5909 5909 5910 5910 5910 5912 5912 5914 5914 5916 5916 5918 5918 5920 5921 5922 5922 5924 5924 5926 5928 5929 5930 5932 5933 5934 5936 5936 5937 5938 5938 5940 5940 5940 5940 5941 5941 5942 5942 5942 5942 5942 5942 5942 5942 5942 5942 5942 5942 5942 5942 5942 5942 5942 5942 5942 5943 5944 5944 5944 5944 5944 5944 5944
5869 5872 5875 5878 5880 5883 5886 5888 5889 5890 5892 5892 5894 5896 5897 5898 5898 5900 5901 5901 5901 5902 5902 5904 5905 5906 5906 5907 5908 5908 5908 5908 5908 5908 5908 5909 5910 5910 5911 5912 5913 5914 5915 5916 5918 5918 5920 5922 5922 5924 5924 5926 5927 5928 5930 5931 5932 5934 5934 5936 5936 5938 5938 5939 5940 5941 5942 5942 5942 5942 5942 5942 5942 5942 5942 5942 5942 5942 5943 5943 5944 5944 5943 5942 5942 5942 5943 5943 5944 5944 5944 5944 5944 5944 5945 5946 5946
5867 5870 5872 5874 5877 5881 5884 5885 5887 5889 5890 5891 5893 5894 5896 5896 5896 5898 5900 5900 5900 5900 5901 5902 5904 5906 5906 5906 5907 5907 5907 5907 5908 5908 5908 5909 5910 5910 5911 5912 5912 5914 5915 5916 5917 5918 5920 5922 5923 5924 5925 5926 5928 5928 5930 5932 5933 5934 5935 5936 5937 5938 5939 5940 5941 5942 5942 5942 5943 5943 5943 5943 5944 5944 5943 5943 5944 5944 5944 5944 5944 5944 5944 5944 5944 5944 5944 5944 5945 5945 5946 5946 5946 5946 5946 5946 5946
5866 5868 5870 5872 5875 5879 5882 5883 5886 5887 5888 5889 5892 5893 5894 5894 5896 5897 5899 5900 5900 5900 5900 5901 5902 5904 5906 5906 5906 5906 5906 5906 5907 5908 5908 5908 5909 5910 5911 5912 5913 5914 5914 5916 5916 5918 5920 5922 5923 5924 5926 5926 5928 5929 5930 5932 5933 5934 5936 5937 5938 5938 5940 5941 5942 5942 5943 5943 5944 5944 5944 5944 5944 5944 5944 5944 5944 5945 5946 5946 5946 5946 5946 5946 5945 5945 5945 5946 5946 5946 5947 5947 5946 5946 5947 5948 5948
5864 5866 5868 5870 5874 5878 5880 5882 5884 5886 5886 5888 5890 5892 5892 5894 5896 5896 5898 5898 5899 5900 5900 5900 5901 5902 5904 5906 5906 5906 5906 5906 5906 5908 5908 5908 5908 5909 5910 5911 5912 5913 5914 5915 5916 5918 5920 5922 5923 5924 5926 5927 5928 5930 5931 5932 5934 5934 5936 5938 5938 5940 5940 5942 5942 5943 5944 5944 5944 5945 5945 5946 5946 5946 5945 5945 5946 5946 5946 5947 5947 5948 5948 5947 5946 5946 5946 5947 5948 5948 5948 5948 5948 5948 5948 5948 5948
5862 5864 5867 5870 5874 5877 5878 5880 5883 5884 5884 5886 5889 5891 5891 5893 5894 5896 5897 5898 5898 5899 5899 5900 5900 5902 5904 5904 5905 5906 5906 5906 5906 5907 5908 5908 5908 5908 5910 5910 5911 5912 5914 5915 5916 5918 5919 5921 5923 5924 5926 5927 5928 5930 5932 5932 5934 5935 5936 5938 5939 5940 5941 5942 5943 5944 5944 5944 5946 5946 5946 5946 5947 5947 5946 5946 5946 5948 5948 5948 5948 5948 5948 5948 5948 5947 5948 5948 5948 5949 5950 5950 5950 5950 5950 5950 5950
5860 5864 5868 5870 5872 5875 5876 5878 5881 5882 5882 5884 5888 5890 5890 5891 5893 5894 5896 5896 5898 5898 5898 5899 5900 5901 5902 5904 5904 5905 5906 5906 5906 5906 5906 5907 5908 5908 5908 5910 5910 5912 5914 5915 5916 5917 5918 5920 5922 5924 5926 5928 5929 5930 5932 5933 5934 5936 5937 5938 5940 5940 5942 5942 5944 5944 5945 5946 5946 5946 5947 5948 5948 5948 5948 5948 5948 5949 5950 5950 5950 5950 5950 5949 5948 5948 5949 5950 5950 5950 5950 5950 5950 5950 5950 5951 5951
5862 5865 5868 5869 5870 5872 5874 5876 5878 5879 5880 5882 5885 5888 5888 5889 5891 5892 5894 5895 5896 5898 5898 5898 5898 5900 5900 5902 5903 5904 5904 5904 5905 5906 5906 5906 5906 5907 5908 5908 5910 5912 5913 5914 5916 5918 5919 5921 5923 5924 5926 5928 5930 5932 5932 5934 5936 5936 5938 5939 5940 5941 5942 5943 5944 5945 5946 5946 5946 5946 5948 5949 5950 5949 5949 5949 5950 5950 5951 5951 5951 5951 5951 5950 5950 5950 5950 5951 5952 5952 5952 5952 5952 5952 5952 5952 5952
5862 5864 5865 5866 5868 5870 5872 5874 5875 5876 5878 5879 5882 5886 5886 5886 5888 5890 5892 5893 5894 5896 5896 5896 5898 5898 5900 5900 5902 5903 5904 5904 5904 5905 5906 5906 5906 5906 5907 5908 5909 5910 5912 5914 5916 5918 5920 5922 5924 5925 5926 5928 5930 5932 5934 5935 5936 5937 5938 5939 5940 5941 5942 5943 5944 5945 5946 5946 5947 5947 5948 5950 5950 5950 5950 5950 5951 5952 5952 5952 5952 5952 5952 5952 5952 5952 5952 5952 5953 5953 5952 5953 5953 5953 5953 5954 5954
5857 5859 5860 5862 5864 5866 5869 5870 5872 5873 5874 5876 5880 5882 5883 5884 5886 5888 5888 5890 5891 5894 5896 5896 5897 5898 5898 5900 5900 5902 5902 5903 5904 5904 5905 5905 5906 5906 5906 5907 5908 5910 5912 5914 5916 5918 5919 5921 5923 5925 5926 5928 5930 5932 5934 5935 5936 5937 5938 5938 5940 5940 5942 5943 5944 5945 5946 5946 5948 5948 5948 5950 5951 5950 5950 5951 5952 5953 5954 5954 5954 5954 5954 5954 5953 5954 5954 5954 5954 5954 5954 5954 5954 5954 5954 5954 5954
5852 5854 5856 5860 5860 5863 5866 5866 5868 5869 5871 5874 5876 5878 5880 5882 5882 5884 5885 5887 5890 5892 5894 5896 5896 5896 5896 5898 5899 5900 5901 5902 5904 5904 5904 5904 5904 5906 5906 5907 5908 5910 5912 5913 5914 5916 5918 5920 5922 5924 5926 5928 5930 5932 5932 5934 5935 5936 5936 5938 5939 5940 5942 5942 5944 5945 5946 5947 5948 5948 5949 5950 5952 5952 5951 5952 5953 5954 5954 5955 5955 5954 5954 5955 5955 5955 5956 5956 5956 5956 5956 5956 5955 5954 5955 5955 5956
5846 5848 5852 5855 5858 5861 5863 5864 5864 5865 5868 5871 5872 5874 5878 5878 5879 5880 5882 5885 5888 5890 5892 5894 5894 5894 5895 5896 5897 5899 5900 5902 5902 5902 5903 5903 5904 5904 5905 5906 5908 5908 5910 5912 5914 5916 5918 5920 5922 5924 5926 5928 5930 5931 5932 5933 5934 5936 5936 5938 5939 5940 5942 5943 5944 5946 5946 5948 5948 5949 5950 5951 5952 5952 5952 5952 5954 5954 5956 5956 5956 5956 5956 5956 5956 5956 5957 5957 5957 5957 5957 5957 5956 5956 5956 5956 5956
5842 5844 5848 5851 5855 5859 5860 5860 5860 5860 5864 5868 5868 5870 5874 5874 5875 5877 5880 5883 5885 5886 5888 5890 5891 5892 5893 5894 5894 5896 5898 5900 5900 5902 5902 5902 5903 5904 5904 5905 5906 5908 5910 5912 5914 5915 5917 5920 5922 5924 5926 5927 5929 5930 5932 5932 5934 5936 5937 5939 5940 5942 5943 5944 5946 5946 5947 5948 5949 5950 5950 5952 5953 5953 5953 5953 5954 5955 5956 5956 5957 5957 5957 5958 5958 5958 5958 5958 5958 5958 5958 5958 5958 5958 5958 5958 5958
5839 5841 5844 5848 5852 5855 5856 5856 5856 5856 5860 5864 5866 5865 5868 5870 5872 5876 5878 5880 5882 5884 5886 5888 5890 5890 5890 5890 5892 5894 5896 5897 5898 5900 5901 5902 5902 5902 5902 5904 5905 5906 5909 5911 5912 5914 5916 5918 5920 5922 5924 5926 5928 5930 5931 5932 5934 5936 5938 5940 5941 5942 5944 5945 5946 5946 5947 5948 5948 5950 5950 5952 5953 5954 5954 5954 5955 5956 5956 5957 5958 5958 5958 5958 5959 5960 5960 5960 5960 5960 5960 5960 5960 5960 5960 5960 5960
5836 5839 5842 5846 5848 5850 5852 5853 5853 5853 5855 5860 5862 5860 5863 5867 5870 5872 5875 5876 5878 5881 5884 5887 5889 5888 5888 5890 5892 5894 5894 5896 5898 5899 5900 5900 5901 5902 5902 5903 5904 5906 5908 5910 5912 5913 5914 5916 5918 5920 5922 5924 5926 5929 5931 5933 5935 5936 5938 5940 5941 5942 5944 5944 5944 5946 5946 5947 5948 5950 5951 5952 5954 5954 5954 5955 5956 5956 5957 5958 5958 5958 5958 5960 5960 5960 5960 5961 5961 5961 5960 5961 5961 5961 5961 5961 5962
5834 5838 5840 5840 5842 5844 5846 5849 5849 5848 5850 5855 5857 5856 5859 5863 5865 5868 5870 5872 5876 5878 5880 5885 5887 5886 5888 5890 5892 5893 5894 5895 5896 5898 5900 5900 5900 5901 5901 5902 5904 5905 5906 5908 5910 5912 5913 5915 5917 5920 5922 5924 5926 5928 5931 5933 5935 5937 5938 5939 5940 5941 5942 5942 5943 5944 5946 5947 5948 5950 5951 5952 5954 5954 5954 5955 5956 5957 5958 5958 5958 5958 5959 5960 5960 5961 5962 5962 5962 5962 5962 5962 5962 5962 5962 5962 5962
5832 5836 5836 5835 5838 5839 5842 5844 5844 5844 5847 5850 5852 5852 5854 5857 5860 5864 5866 5868 5872 5874 5876 5882 5884 5885 5887 5890 5891 5892 5893 5894 5895 5897 5898 5900 5900 5900 5900 5901 5902 5904 5904 5906 5908 5910 5912 5914 5916 5918 5920 5922 5924 5927 5930 5932 5934 5936 5938 5938 5940 5940 5941 5942 5944 5944 5946 5947 5948 5950 5951 5952 5954 5954 5954 5956 5956 5958 5958 5958 5958 5959 5960 5960 5960 5961 5962 5962 5962 5962 5963 5963 5963 5963 5963 5963 5963
5828 5832 5830 5830 5834 5834 5837 5838 5838 5841 5842 5844 5846 5846 5848 5852 5858 5861 5862 5864 5868 5870 5874 5878 5881 5884 5886 5888 5890 5891 5892 5892 5893 5894 5896 5898 5898 5899 5900 5900 5901 5902 5904 5906 5907 5908 5910 5912 5914 5916 5919 5922 5924 5926 5929 5931 5933 5935 5936 5938 5939 5940 5942 5943 5944 5946 5946 5948 5948 5950 5951 5952 5953 5954 5954 5955 5956 5958 5958 5958 5958 5959 5960 5960 5960 5961 5962 5962 5962 5963 5963 5964 5964 5964 5964 5964 5964
5824 5825 5824 5826 5828 5828 5831 5831 5834 5836 5833 5834 5840 5842 5842 5848 5854 5856 5857 5862 5866 5869 5874 5876 5879 5882 5884 5886 5888 5890 5890 5891 5892 5892 5894 5896 5896 5897 5898 5898 5900 5902 5903 5904 5906 5907 5909 5912 5914 5916 5918 5920 5923 5926 5928 5930 5932 5934 5936 5937 5938 5940 5942 5943 5944 5946 5947 5948 5949 5950 5951 5952 5952 5953 5954 5955 5956 5957 5958 5958 5958 5958 5960 5960 5960 5960 5961 5962 5962 5962 5963 5964 5964 5964 5964 5964 5964
5818 5818 5818 5820 5821 5823 5825 5826 5830 5828 5823 5828 5836 5838 5838 5842 5849 5852 5854 5860 5865 5868 5871 5874 5876 5880 5882 5885 5886 5887 5888 5890 5891 5892 5892 5894 5894 5896 5897 5898 5898 5900 5902 5904 5905 5906 5908 5911 5913 5915 5917 5920 5922 5924 5926 5928 5931 5932 5934 5936 5938 5939 5941 5943 5944 5946 5946 5948 5948 5950 5951 5952 5952 5953 5954 5954 5956 5956 5957 5958 5958 5958 5959 5960 5960 5960 5961 5962 5962 5962 5963 5964 5964 5964 5964 5964 5964
5810 5811 5812 5814 5816 5818 5820 5822 5824 5820 5818 5826 5834 5836 5834 5837 5845 5850 5853 5858 5862 5864 5868 5871 5874 5878 5881 5884 5884 5886 5887 5888 5889 5890 5890 5891 5893 5896 5898 5898 5898 5899 5900 5902 5904 5906 5908 5910 5912 5914 5916 5918 5921 5923 5925 5928 5930 5932 5933 5934 5936 5938 5940 5942 5944 5945 5946 5946 5948 5949 5950 5951 5952 5952 5953 5954 5954 5956 5956 5958 5958 5958 5959 5960 5960 5961 5961 5962 5962 5962 5963 5963 5964 5964 5964 5964 5965
5803 5804 5805 5807 5810 5812 5812 5816 5817 5815 5818 5824 5832 5834 5829 5832 5843 5848 5850 5854 5858 5862 5866 5868 5871 5874 5878 5881 5883 5884 5885 5886 5887 5888 5889 5890 5892 5895 5896 5897 5898 5898 5900 5901 5902 5904 5906 5909 5911 5913 5916 5918 5920 5922 5924 5926 5928 5930 5932 5934 5936 5938 5940 5942 5942 5944 5945 5946 5947 5948 5950 5950 5951 5952 5952 5953 5954 5955 5956 5957 5958 5958 5960 5960 5960 5961 5962 5962 5962 5962 5962 5963 5964 5964 5964 5964 5965
5797 5798 5800 5802 5804 5806 5808 5812 5814 5814 5817 5821 5828 5830 5822 5828 5842 5845 5847 5852 5856 5860 5862 5864 5868 5872 5875 5878 5880 5881 5882 5884 5885 5886 5888 5889 5891 5893 5894 5896 5896 5897 5898 5900 5902 5903 5905 5907 5910 5912 5914 5916 5918 5920 5922 5924 5926 5928 5930 5932 5934 5936 5938 5940 5942 5943 5944 5946 5946 5948 5948 5950 5950 5952 5952 5953 5954 5956 5956 5957 5958 5959 5960 5960 5961 5962 5962 5962 5962 5962 5963 5963 5964 5964 5964 5964 5965
5794 5796 5798 5798 5800 5804 5808 5811 5812 5814 5815 5818 5824 5824 5818 5826 5838 5844 5848 5852 5854 5857 5859 5862 5866 5868 5872 5874 5875 5877 5879 5881 5883 5885 5886 5888 5890 5890 5892 5894 5895 5896 5897 5898 5900 5902 5904 5906 5908 5910 5912 5915 5918 5920 5921 5923 5925 5926 5928 5931 5934 5936 5937 5938 5940 5942 5943 5944 5946 5946 5948 5949 5950 5952 5952 5954 5954 5956 5957 5958 5958 5959 5960 5961 5962 5962 5962 5962 5963 5963 5964 5964 5964 5964 5964 5964 5965
5788 5791 5792 5794 5798 5804 5806 5808 5811 5812 5814 5815 5817 5817 5816 5824 5837 5843 5846 5848 5850 5854 5856 5859 5862 5865 5868 5870 5872 5875 5878 5880 5882 5884 5886 5887 5888 5888 5890 5892 5893 5894 5896 5897 5899 5901 5903 5904 5906 5908 5910 5912 5915 5918 5920 5922 5922 5924 5926 5929 5932 5934 5935 5936 5938 5940 5942 5944 5944 5946 5947 5948 5950 5952 5952 5954 5955 5956 5957 5958 5959 5960 5960 5961 5962 5962 5963 5964 5964 5964 5964 5964 5964 5964 5964 5965 5965
5784 5784 5786 5790 5798 5801 5800 5803 5806 5807 5809 5808 5809 5814 5818 5826 5836 5841 5842 5845 5848 5852 5854 5856 5860 5862 5864 5866 5870 5873 5876 5878 5881 5882 5884 5886 5886 5888 5888 5890 5891 5893 5894 5896 5898 5900 5901 5903 5904 5906 5909 5911 5913 5915 5918 5919 5920 5923 5925 5928 5930 5932 5934 5935 5937 5938 5940 5942 5944 5944 5946 5948 5949 5951 5952 5954 5954 5956 5957 5958 5959 5960 5960 5961 5962 5962 5963 5964 5964 5964 5964 5964 5964 5965 5965 5965 5965
5778 5780 5784 5790 5793 5792 5792 5796 5800 5801 5802 5802 5803 5811 5818 5824 5832 5836 5839 5844 5846 5849 5852 5853 5856 5858 5860 5864 5868 5870 5874 5876 5878 5881 5882 5884 5885 5886 5887 5888 5890 5892 5893 5894 5896 5897 5898 5900 5902 5905 5908 5910 5912 5914 5915 5917 5919 5922 5924 5926 5928 5930 5932 5933 5934 5936 5938 5940 5942 5944 5945 5946 5948 5950 5952 5953 5954 5956 5956 5958 5958 5959 5960 5961 5962 5962 5962 5963 5964 5964 5964 5964 5964 5965 5965 5965 5965
5772 5776 5780 5783 5784 5784 5786 5790 5794 5796 5797 5797 5800 5807 5814 5820 5828 5832 5836 5842 5844 5848 5850 5850 5852 5855 5858 5863 5866 5868 5871 5873 5876 5878 5880 5881 5884 5884 5886 5887 5888 5890 5891 5892 5893 5894 5896 5898 5900 5903 5906 5908 5908 5910 5912 5914 5917 5920 5922 5924 5926 5928 5930 5931 5932 5934 5936 5939 5940 5942 5944 5946 5947 5948 5950 5952 5953 5954 5956 5956 5958 5958 5959 5960 5960 5961 5962 5962 5962 5963 5964 5964 5964 5964 5964 5965 5965
5764 5768 5772 5775 5776 5780 5784 5787 5790 5794 5794 5795 5798 5803 5810 5818 5826 5830 5834 5839 5842 5844 5847 5848 5850 5854 5858 5862 5864 5867 5869 5870 5873 5875 5877 5880 5882 5883 5884 5886 5887 5888 5890 5890 5892 5893 5895 5896 5898 5900 5903 5904 5906 5908 5910 5912 5915 5917 5920 5922 5924 5926 5928 5929 5930 5932 5935 5937 5939 5940 5942 5944 5946 5948 5949 5950 5952 5954 5954 5956 5956 5958 5958 5959 5960 5960 5961 5961 5962 5962 5963 5963 5964 5964 5964 5964 5964
5756 5760 5763 5766 5770 5774 5779 5782 5786 5790 5791 5792 5795 5798 5808 5818 5824 5827 5831 5836 5838 5841 5844 5846 5849 5852 5856 5859 5862 5864 5866 5868 5870 5872 5874 5877 5880 5881 5882 5884 5884 5886 5887 5888 5890 5892 5894 5895 5897 5899 5901 5903 5906 5908 5910 5912 5913 5915 5918 5920 5922 5924 5926 5927 5929 5931 5933 5935 5937 5939 5940 5942 5944 5946 5948 5950 5951 5952 5954 5954 5956 5956 5958 5958 5958 5960 5960 5960 5960 5962 5962 5962 5962 5963 5964 5964 5964
5748 5753 5756 5760 5764 5769 5772 5776 5780 5784 5786 5788 5790 5794 5804 5816 5820 5822 5826 5831 5834 5838 5841 5844 5847 5850 5853 5856 5860 5862 5864 5866 5868 5870 5872 5874 5877 5878 5880 5881 5882 5883 5885 5886 5888 5890 5891 5893 5896 5898 5900 5902 5904 5906 5908 5910 5912 5914 5916 5918 5920 5922 5923 5925 5927 5929 5931 5933 5935 5937 5939 5941 5943 5945 5946 5948 5950 5951 5952 5954 5954 5956 5956 5957 5958 5958 5959 5960 5960 5960 5960 5961 5962 5962 5962 5963 5962